Location: Unspecified
(48.8582°N, 2.2947°E)
Time: 00:27:37
(UTC+02:00)

ISS - Pass Details

Date: 31 March 2019
Orbit: 408 x 410 km, 51.6° (Epoch: 26 April)

Event Time Altitude Azimuth Distance (km) Brightness Sun altitude
Rises 20:57:16 0° 278° (W) 2,338 2.5 -6.9°
Reaches altitude 10° 20:59:23 10° 284° (WNW) 1,476 0.8 -7.2°
Maximum altitude 21:02:37 49° 1° (N) 534 -3.1 -7.7°
Drops below altitude 10° 21:05:51 10° 78° (ENE) 1,475 -1.5 -8.3°
Enters shadow 21:06:03 - 79° (ENE) 1,550 -1.4 -8.3°
